This demonstration page uses our WeatherBlox Daily Observations layout. Learn more.

Left ArrowRight Arrow

Hourly Observations for October 20, 2022

Temp ( °F °C ) Dew Point ( °F °C ) Humidity (%) Winds ( mph kmh ) Pressure ( in mb ) Visibility ( mi km ) Precip ( " mm )
12:53 am 00:53 Clear 52 11.1 27 -2.8 38 38 SW 14 22 29.97 1015 N/A 0.00 0.00
1:53 am 01:53 Clear 53 11.7 24 -4.4 32 32 WSW 12 19 29.95 1014 N/A 0.00 0.00
2:53 am 02:53 Clear 50 10 23 -5 34 34 WSW 12 19 29.92 1013 N/A 0.00 0.00
3:53 am 03:53 Clear 49 9.4 22 -5.6 34 34 SW 18 30 29.89 1012 N/A 0.00 0.00
4:53 am 04:53 Clear 53 11.7 21 -6.1 28 28 SW 20 31 29.87 1011 N/A 0.00 0.00
5:53 am 05:53 Clear 51 10.6 22 -5.6 31 31 SW 18 30 29.85 1011 N/A 0.00 0.00
6:53 am 06:53 Clear 48 8.9 22 -5.6 35 35 WSW 13 20 29.86 1011 N/A 0.00 0.00
7:53 am 07:53 Sunny 49 9.4 21 -6.1 33 33 SW 17 28 29.84 1010 N/A 0.00 0.00
8:53 am 08:53 Sunny 54 12.2 21 -6.1 27 27 SW 20 31 29.81 1009 N/A 0.00 0.00
9:53 am 09:53 Sunny 59 15 23 -5 25 25 SW 25 41 29.78 1009 N/A 0.00 0.00
10:53 am 10:53 Sunny 64 17.8 24 -4.4 22 22 SW 26 43 29.75 1008 N/A 0.00 0.00
11:53 am 11:53 Sunny 71 21.7 24 -4.4 17 17 SW 21 33 29.72 1007 N/A 0.00 0.00
12:53 pm 12:53 Sunny 77 25 23 -5 13 13 W 26 43 29.66 1004 N/A 0.00 0.00
1:53 pm 13:53 Sunny 70 21.1 29 -1.7 22 22 NW 28 44 29.69 1005 N/A 0.00 0.00
2:53 pm 14:53 Sunny 65 18.3 28 -2.2 25 25 NW 28 44 29.74 1007 N/A 0.00 0.00
3:53 pm 15:53 Sunny 60 15.6 30 -1.1 32 32 NW 17 28 29.79 1009 N/A 0.00 0.00
4:53 pm 16:53 Cloudy 58 14.4 31 -0.6 36 36 NW 7 11 29.79 1009 N/A 0.00 0.00
5:53 pm 17:53 Cloudy 57 13.9 31 -0.6 37 37 N 6 9 29.80 1009 N/A 0.00 0.00
6:53 pm 18:53 Cloudy 56 13.3 31 -0.6 38 38 NNW 6 9 29.80 1009 N/A 0.00 0.00
7:53 pm 19:53 Cloudy 54 12.2 32 0 43 43 NW 5 7 29.81 1009 N/A 0.00 0.00
8:53 pm 20:53 Partly Cloudy 48 8.9 30 -1.1 49 49 WNW 5 7 29.81 1010 N/A 0.00 0.00
9:53 pm 21:53 Cloudy 46 7.8 31 -0.6 55 55 SW 6 9 29.80 1009 N/A 0.00 0.00
10:53 pm 22:53 Mostly Cloudy 44 6.7 31 -0.6 60 60 SW 5 7 29.78 1009 N/A 0.00 0.00
11:53 pm 23:53 Mostly Cloudy 41 5 30 -1.1 65 65 Calm 29.77 1008 N/A 0.00 0.00

Powered by AerisWeather